Hourly Weather Roundup
Issued by NWS Central Illinois

Home | Current Version | Previous Version | Text Only | Print | Product List | Glossary On
Versions: 1 2 3 4 5 6 7 8 9 10 11 12 13 14 15 16 17 18 19 20 21 22 23 24 25 26 27 28 29 30 31 32 33 34 35 36 37 38 39 40 41 42 43 44 45 46 47 48 49 50
945
NZUS43 KILX 182010
HWRILX

AREA WEATHER ROUNDUP
NATIONAL WEATHER SERVICE, LINCOLN IL
200 PM CST WED JAN 18 2017


CITY           SKY/WX    TMP DP  RH WIND       PRES   REMARKS
BLOOMINGTON    CLOUDY    37  34  89 SW15      30.10F WCI  28
CHAMPAIGN      CLOUDY    40  34  79 SW12      30.13F WCI  33
DANVILLE       CLOUDY    39  35  84 SW10      30.10F WCI  32
DECATUR        PTSUNNY   41  35  79 SW9       30.13F
EFFINGHAM      CLOUDY    42  37  80 S6        30.17F
FLORA          CLOUDY    43  37  77 S6        30.17F
GALESBURG      CLOUDY    39  35  86 S12       30.08F WCI  32
JACKSONVILLE   SUNNY     43  34  70 S8        30.12S
LACON          SUNNY     39  33  78 S12       30.08S WCI  32
LAWRENCEVILLE  CLOUDY    40  37  89 SE7       30.18F
LITCHFIELD     MOSUNNY   42  37  81 S8        30.13F
$$


CITY           SKY/WX    TMP DP  RH WIND       PRES   REMARKS
LINCOLN        PTSUNNY   42  36  79 S3        30.12F
MACOMB         SUNNY     42  37  82 SW12      30.11F
MATTOON        CLOUDY    39  34  82 SW8       30.14S WCI  33
MT CARMEL AP   CLOUDY    41  35  78 S3        30.17F
OLNEY-NOBLE AP CLOUDY    39  37  93 S5        30.19F
PARIS          CLOUDY    40  36  86 S8        30.16S WCI  34
PEORIA         CLOUDY    37  33  85 SW13      30.11F WCI  29
PONTIAC        PTSUNNY   39  37  91 S12       30.09F WCI  32
RANTOUL        PTSUNNY   42  37  82 S8        30.11F
SPRINGFIELD    SUNNY     43  33  68 VRB3      30.13F
TAYLORVILLE    MOSUNNY   43  37  79 S10       30.13F
$$

...REGIONAL REPORTS...


CITY           SKY/WX    TMP DP  RH WIND       PRES   REMARKS
CHICAGO O`HARE CLOUDY    36  32  85 SW14G20   30.06F WCI  27
KANKAKEE       CLOUDY    38  33  82 SW10G16   30.09F WCI  32
MOLINE         CLOUDY    38  32  79 SW10G21   30.06F WCI  31
MOUNT STERLING SUNNY     43  35  73 S10       30.11S
MOUNT VERNON   MOSUNNY   45  37  73 S6        30.16F
PITTSFIELD     SUNNY     43  35  74 S6        30.12F
QUINCY         PTSUNNY   41  36  82 S8        30.10F
ROCKFORD       CLOUDY    35  31  85 SW8       30.06F WCI  29
$$


CITY           SKY/WX    TMP DP  RH WIND       PRES   REMARKS
BURLINGTON     PTSUNNY   41  37  86 S14       30.06F WCI  33
CEDAR RAPIDS   CLOUDY    35  33  92 S14       30.01F FOG     WCI  26
DES MOINES     MOSUNNY   47  38  71 S16       29.98F
KIRKSVILLE     CLOUDY    40  36  86 SW9       30.08F WCI  34
OTTUMWA        SUNNY     44  36  73 S14       30.02F
ST LOUIS       CLOUDY    48  32  53 S8        30.13F
$$


CITY           SKY/WX    TMP DP  RH WIND       PRES   REMARKS
TERRE HAUTE    CLOUDY    40  34  79 W5        30.16F
EVANSVILLE     CLOUDY    45  35  68 S8        30.20S
INDIANAPOLIS   CLOUDY    38  35  89 SW9       30.14F WCI  31
LAFAYETTE      CLOUDY    37  35  92 SW6       30.12F WCI  32
MADISON        CLOUDY    34  30  85 VRB6      30.02R WCI  29
MILWAUKEE      CLOUDY    37  31  78 SW18      30.03R WCI  27
$$






USA.gov is the U.S. government's official web portal to all federal, state and local government web resources and services.